Rafik Belmadi

Olheiro-Chefe - CR Belouizdad
4 Abr 2027
Domingo
Processo

Personalidade

Adaptabilidade (10) Ambição (6) Controvérsia (2) Lealdade (17) Pressão (15) Profissionalismo (17) Espírito Esportivo (8) Temperamento (2)

Perfil

Estilo de Treinamento Democrático
Licença Continental B
Determinação 6
Gestão de Pessoas 5
Motivação 6
Disciplina 9
Satisfação no Trabalho
50%
Fadiga
0%
Função Olheiro-Chefe
Salário 25.8K p/s
Contrato 14.03.2030

Desempenho

Comportamento Normal
Eficácia do Treinamento
23%
Desenvolvimento do Jogador
20%
Prevenção de Lesões
40%
Implementação Tática
45%

Eventos Recentes

Participou de uma reunião de recrutamento agora
Avaliou um jogador agora
Avaliou um jogador agora
Avaliou um jogador agora
Avaliou um jogador agora
Observou uma partida 7d atrás
Avaliou um jogador 7d atrás
Avaliou um jogador 7d atrás

Monitorando agora

186
Jogador Clube Status Habilidade Confiança Observado Última observação Último voto
Abraham Ofori WAFA Ativo 108 / 101 40% 4 03.04.2027 -
Teboho Tlolane Golden Arrows Ativo 102 / 109 40% 2 03.04.2027 -
Mohamed Kanno Al-Hilal Ativo 133 / 117 40% 3 02.04.2027 -
Yassine Benzia Al-Fayha Ativo 109 / 115 40% 3 02.04.2027 -
Shayne Lavery Cambridge United Ativo 119 / 101 40% 1 01.04.2027 -
Abdennour Iheb Belhocini JS Kabylie Ativo 116 / 114 40% 1 01.04.2027 -
Alfa Semedo Al-Fayha Ativo 132 / 116 40% 6 31.03.2027 -
Josh Neufville Bradford City Ativo 110 / 113 40% 1 31.03.2027 -
Hamdi Labidi Olympique Akbou Ativo 113 / 105 40% 2 30.03.2027 -
Ahmed Bamasud Al-Fayha Ativo 94 / 96 40% 1 30.03.2027 -
Charlie Webster Burton Albion Ativo 100 / 110 40% 1 30.03.2027 -
Brian Figueroa Morelia Ativo 116 / 117 40% 3 28.03.2027 -
Noa Cervantes USM Khenchela Ativo 98 / 106 40% 1 28.03.2027 -
Miro Dinamo Makhachkala Ativo 102 / 126 40% 2 27.03.2027 -
Adel Bouzida Paradou Ativo 103 / 89 40% 1 25.03.2027 -
Ihor Krasnopir Polissia Ativo 108 / 117 40% 1 24.03.2027 -
Danyil Alefirenko Chornomorets Ativo 123 / 110 40% 1 24.03.2027 -
George Honeyman Blackpool Ativo 101 / 105 40% 1 22.03.2027 -
Dramane Kamagaté USM Alger Ativo 100 / 106 40% 3 21.03.2027 -
Jason Al-Fayha Ativo 139 / 115 40% 9 21.03.2027 -
Ivan Bendera Epicentr Ativo 105 / 91 40% 1 21.03.2027 -
Harry Cornick AFC Wimbledon Ativo 101 / 91 40% 1 19.03.2027 -
Fábio Tavares Newport County Ativo 106 / 97 40% 1 19.03.2027 -
Simon Ramabu Polokwane City Ativo 121 / 112 40% 5 18.03.2027 -
Josh Dacres-Cogley Stockport County Ativo 96 / 100 40% 1 18.03.2027 -
Teboho Tau Ajax Cape Town Ativo 129 / 120 40% 5 17.03.2027 -
Hamza Sakhi Hajer Ativo 116 / 111 40% 1 17.03.2027 -
Thabo Nodada Maritzburg United Ativo 96 / 102 40% 4 16.03.2027 -
Edarlyn Reyes Arsenal Tula Ativo 119 / 105 40% 5 15.03.2027 -
Yevhen Pidlepenets Bukovyna Ativo 103 / 106 40% 1 15.03.2027 -
Wadhah Zaidi Hajer Ativo 96 / 93 40% 2 14.03.2027 -
Mohau Nkota Al-Ettifaq Ativo 127 / 115 40% 1 14.03.2027 -
Younes El Bahraoui Al-Taawoun Ativo 124 / 108 40% 8 12.03.2027 -
Luther Zwane Platinum Stars Ativo 91 / 115 40% 2 12.03.2027 -
Charlie Whitaker Tranmere Rovers Ativo 102 / 110 40% 1 12.03.2027 -
Albert Amoah Hajer Ativo 90 / 103 40% 1 12.03.2027 -
Valentín Vada Damac Ativo 122 / 109 40% 2 10.03.2027 -
Ghiles Guenaoui USM Alger Ativo 109 / 108 40% 2 09.03.2027 -
Lebogang Erasmus Platinum Stars Ativo 107 / 109 40% 2 07.03.2027 -
Gorka Gorosabel Real Sociedad Ativo 118 / 105 40% 1 07.03.2027 -
Álvaro Medrán Al-Ettifaq Ativo 123 / 135 40% 4 06.03.2027 -
Mark Helm Fleetwood Town Ativo 96 / 101 40% 1 04.03.2027 -
Braian Álvarez Arsenal Tula Ativo 115 / 91 40% 1 02.03.2027 -
Ali Saleh Al Wasl Ativo 132 / 117 40% 3 01.03.2027 -
Emanuele Scipioni Monopoli Ativo 94 / 108 40% 1 28.02.2027 -
Jordhy Thompson Orenburg Ativo 112 / 115 40% 1 25.02.2027 -
Matías Lacava Vizela Ativo 120 / 114 40% 1 25.02.2027 -
Tariq Abdullah Damac Ativo 114 / 112 40% 1 25.02.2027 -
Hamed Al-Ghamdi Al-Wehda Ativo 120 / 108 40% 1 24.02.2027 -
Daniil Konoplev Dinamo Bryansk Ativo 95 / 91 40% 1 24.02.2027 -
Bradley Mothiba SuperSport United Ativo 110 / 105 40% 2 21.02.2027 -
Mohammed Al-Dossary Al-Ra'ed Ativo 88 / 94 40% 1 21.02.2027 -
Sinoxolo Kwayiba Chippa United Ativo 129 / 119 40% 1 21.02.2027 -
Trezeguet Al-Riyadh Ativo 124 / 124 40% 4 19.02.2027 -
Saeed Al-Hamsal Al-Khaleej Ativo 120 / 99 40% 2 18.02.2027 -
Daniel Kyerewaa Reading Ativo 103 / 110 40% 3 18.02.2027 -
Erick Ngcobo Black Aces Ativo 89 / 100 40% 3 16.02.2027 -
Faiz Mattoir Septemvri Ativo 116 / 99 40% 1 16.02.2027 -
Sultan Mandash Al-Hilal Ativo 107 / 117 40% 1 15.02.2027 -
Thulani Mabaso Platinum Stars Ativo 115 / 111 40% 3 14.02.2027 -
Leo Goglichidze Rodina Ativo 98 / 112 40% 2 14.02.2027 -
Louis Appéré Cambridge United Ativo 82 / 92 40% 1 14.02.2027 -
Stanislav Biblyk Chaika Ativo 90 / 97 40% 1 14.02.2027 -
Haman Mandjan Al-Ra'ed Ativo 98 / 107 40% 1 09.02.2027 -
Maxim Kutovoy Salyut Ativo 100 / 93 40% 1 08.02.2027 -
Kwame Opoku Asante Kotoko Ativo 98 / 95 40% 1 08.02.2027 -
Siyanda Ndlovu Hearts of Oak Ativo 112 / 111 40% 2 05.02.2027 -
Lewis McCann Fleetwood Town Ativo 83 / 105 40% 2 05.02.2027 -
Velemseni Ndwandwe Golden Arrows Ativo 120 / 112 40% 2 03.02.2027 -
Gift Ngcobo SuperSport United Ativo 107 / 105 40% 1 03.02.2027 -
Lebohang Maboe Kaizer Chiefs Ativo 129 / 110 40% 3 02.02.2027 -
Midana Cassamá Portimonense Ativo 94 / 110 40% 1 02.02.2027 -
Amos Inusah Wa All Stars Ativo 110 / 113 40% 1 02.02.2027 -
Václav Sejk Sigma Olomouc Ativo 128 / 108 40% 1 01.02.2027 -
Jean Charles Ahoua Al-Faisaly Ativo 86 / 104 40% 1 30.01.2027 -
André Miranda Porto Ativo 98 / 97 40% 1 30.01.2027 -
Gift Mothiba Black Aces Ativo 115 / 90 40% 1 29.01.2027 -
Saeed Al Naqbi Al Ahli Ativo 126 / 115 40% 2 28.01.2027 -
Solly Khunyedi Bloemfontein Celtic Ativo 106 / 97 40% 2 26.01.2027 -
Mehdi Zeffane ES Mostaganem Ativo 112 / 111 55% 1 25.01.2027 -
Jay Matete Milton Keynes Dons Ativo 97 / 119 40% 2 24.01.2027 -
Iker Pozo Rodina Ativo 129 / 120 40% 1 24.01.2027 -
Nduduzo Sibiya Golden Arrows Ativo 127 / 112 40% 2 22.01.2027 -
Abdullah Al-Khaibari Al-Nassr Ativo 100 / 110 40% 1 22.01.2027 -
Nour El Islam Fettouhi JS Saoura Ativo 108 / 93 40% 1 20.01.2027 -
Dumisani Zuma Bidvest Wits Ativo 99 / 89 40% 1 18.01.2027 -
Ahmed Al-Ghamdi Al-Ittihad Ativo 100 / 108 40% 1 16.01.2027 -
Celso Sidney Cherno More Ativo 103 / 111 40% 1 16.01.2027 -
Antony Medrano Dobrudzha Ativo 86 / 95 40% 1 14.01.2027 -
Connor Barrett Walsall Ativo 109 / 111 40% 1 13.01.2027 -
Wandile Duba Bidvest Wits Ativo 115 / 108 40% 5 11.01.2027 -
Soltmurad Bakaev Rodina Ativo 100 / 98 40% 1 11.01.2027 -
Yacine Aliane MC Oran Ativo 105 / 106 40% 1 07.01.2027 -
Agustín Ramírez Inter Ativo 109 / 108 40% 1 05.01.2027 -
Kyle John Port Vale Ativo 110 / 101 40% 1 04.01.2027 -
Damián Puebla Orenburg Ativo 138 / 130 40% 1 04.01.2027 -
Kyreece Lisbie Colchester United Ativo 119 / 107 40% 1 03.01.2027 -
Abdulmalik Al-Jaber Al-Nassr Ativo 89 / 115 40% 1 02.01.2027 -
Ben Ahmed Kohili Paradou Ativo 92 / 109 55% 1 01.01.2027 -
Evidence Mokoena Platinum Stars Ativo 113 / 100 40% 3 30.12.2026 -
Tenton Yenne Baltika Ativo 126 / 109 40% 1 30.12.2026 -
Marcus Browne AFC Wimbledon Ativo 111 / 110 40% 1 28.12.2026 -
Qara Ozobic Inter Ativo 92 / 109 40% 1 28.12.2026 -
Rivaldo Ngcobo Free State Stars Ativo 115 / 95 40% 4 27.12.2026 -
Silvère Ganvoula Al-Fayha Ativo 108 / 118 40% 6 27.12.2026 -
Dániel Lukács Puskas Akademia Ativo 127 / 115 40% 5 25.12.2026 -
Davit Volkovi Zira Ativo 129 / 119 40% 2 25.12.2026 -
Moussa Koné Al-Ra'ed Ativo 129 / 116 40% 1 23.12.2026 -
Dario Vizinger NK Maribor Ativo 116 / 111 40% 1 22.12.2026 -
Juanjo Narváez Al-Ra'ed Ativo 100 / 109 40% 4 21.12.2026 -
Martin Sekulić Ural Ativo 103 / 114 40% 2 21.12.2026 -
Gilson Benchimol Akron Ativo 96 / 119 40% 2 20.12.2026 -
Matty Stevens AFC Wimbledon Ativo 90 / 110 40% 1 19.12.2026 -
François Kamano Sochi Ativo 126 / 111 40% 2 18.12.2026 -
Darío Poveda Nea Salamis Ativo 112 / 99 40% 1 18.12.2026 -
Hlompho Modiba Black Aces Ativo 93 / 87 40% 2 17.12.2026 -
Aaron Drinan Swindon Town Ativo 99 / 98 40% 2 17.12.2026 -
Alexandr Yushin Torpedo Moscow Ativo 107 / 108 40% 1 17.12.2026 -
Róbert Polievka MTK Budapest Ativo 123 / 117 40% 2 13.12.2026 -
Stephen Humphrys Bradford City Ativo 127 / 101 40% 1 13.12.2026 -
Salem Al Kamali Al Jazira Ativo 126 / 126 40% 5 12.12.2026 -
Mohanad Ali Dibba Ativo 98 / 121 40% 3 12.12.2026 -
Sam Nombe Milton Keynes Dons Ativo 122 / 111 40% 1 12.12.2026 -
Ousmane Camara Sharjah Ativo 102 / 123 40% 1 12.12.2026 -
Bruno Al Jazira Ativo 112 / 106 40% 4 09.12.2026 -
Jordan Roberts Stevenage Ativo 123 / 112 40% 1 09.12.2026 -
Firas Ben Larbi Sharjah Rejeitado 133 / 130 40% 3 07.12.2026 Rejeitar
Barna Tóth Paksi Ativo 105 / 98 40% 2 07.12.2026 -
Isaac Success Al Shaab Ativo 106 / 106 40% 5 06.12.2026 -
Zakaria Naïdji MC Alger Ativo 112 / 109 40% 1 04.12.2026 -
Renato Júnior Al Wasl Ativo 130 / 113 40% 5 03.12.2026 -
Milan Tučić Honved Ativo 116 / 96 40% 1 03.12.2026 -
Sory Kaba Al Dhafra Ativo 132 / 128 40% 2 01.12.2026 -
Karim El Berkaoui Al Dhafra Ativo 120 / 129 40% 3 30.11.2026 -
Milán Tóth Vasas Ativo 92 / 112 40% 1 30.11.2026 -
Keagan Manyama Ajax Cape Town Ativo 97 / 114 40% 1 29.11.2026 -
Jordan Larsson Al-Ettifaq Ativo 107 / 120 40% 1 29.11.2026 -
Fahad Al-Zubaidi Al-Fateh Ativo 109 / 113 40% 3 28.11.2026 -
Törles Knöll Al-Ta'ee Ativo 105 / 94 40% 1 26.11.2026 -
Facundo Kruspzky Al Wahda Ativo 124 / 126 40% 3 25.11.2026 -
Nicolás Giménez Al Wasl Ativo 135 / 128 40% 2 25.11.2026 -
Kagiso Malinga Bidvest Wits Ativo 85 / 107 40% 1 19.11.2026 -
Anatole Abang USM Alger Ativo 120 / 115 40% 2 16.11.2026 -
Omar Khribin Al Wahda Ativo 114 / 126 40% 2 13.11.2026 -
Lucas González Estudiantes Ativo 96 / 104 40% 2 13.11.2026 -
Caio Lucas Al Ain Ativo 125 / 118 40% 4 12.11.2026 -
Isaac Tshibangu Emirates Club Ativo 117 / 97 40% 2 12.11.2026 -
Augustine Oladapo Al-Wehda Ativo 115 / 106 40% 1 12.11.2026 -
Radek Šiler Podbrezova Ativo 98 / 122 40% 2 09.11.2026 -
Abdulla Anwar Al Fujairah Ativo 100 / 86 40% 1 09.11.2026 -
Alejandro Melo Temperley Ativo 124 / 106 40% 1 05.11.2026 -
Carlos Guerreño Najran Ativo 103 / 110 40% 1 04.11.2026 -
Alimi Sikiru JS Saoura Ativo 116 / 96 40% 1 03.11.2026 -
Chris Bedia Al Nasr Ativo 110 / 123 40% 3 02.11.2026 -
Bandar Al Kamali Al Shaab Ativo 106 / 102 40% 1 01.11.2026 -
Darwin González Al-Wehda Ativo 133 / 119 40% 1 01.11.2026 -
Amur Kalmykov Spartak Kostroma Ativo 110 / 111 40% 1 28.10.2026 -
Marcelo Torres Gimnasia La Plata Ativo 138 / 124 40% 5 27.10.2026 -
Jerome Karelse Golden Arrows Ativo 92 / 98 40% 2 19.10.2026 -
Roger Martínez Al-Shabab Ativo 129 / 134 40% 1 17.10.2026 -
Cavid Madatov Khazar Ativo 93 / 98 40% 1 15.10.2026 -
Mouhameth Diop Al Fujairah Ativo 100 / 95 40% 1 15.10.2026 -
Mateo Fernández Angusht Ativo 73 / 82 40% 1 13.10.2026 -
Shota Shekiladze Dila Ativo 118 / 115 40% 1 11.10.2026 -
Abdulkarim Darisi Al-Hilal Ativo 102 / 113 40% 1 09.10.2026 -
Rodin Quiñónes Dinamo Batumi Ativo 122 / 103 40% 2 08.10.2026 -
Giorgos Giakoumakis Al Ain Ativo 142 / 125 40% 5 04.10.2026 -
Ramón Mierez Al Nasr Ativo 123 / 117 40% 1 29.09.2026 -
Ramiro Ruiz Rodríguez Atlético Tucumán Ativo 126 / 129 40% 2 28.09.2026 -
Fabrizio Sartori Independiente Rivadavia Ativo 101 / 120 40% 1 28.09.2026 -
Nabil Alioui Damac Ativo 121 / 105 40% 2 26.09.2026 -
Abdoulaye Touré Al Nasr Ativo 92 / 113 40% 1 26.09.2026 -
Mohammed Marran Al-Nassr Ativo 85 / 103 40% 1 25.09.2026 -
Zinho Gano Al-Ra'ed Ativo 131 / 118 40% 1 25.09.2026 -
David Barbona Defensa y Justicia Ativo 113 / 127 40% 4 24.09.2026 -
Kristian Eriksen Molde Ativo 138 / 130 40% 1 23.09.2026 -
Wilfried Eza Al-Faisaly Ativo 99 / 109 40% 1 22.09.2026 -
Hicham Khaloua Al-Ra'ed Ativo 92 / 105 40% 1 20.09.2026 -
Moussa Dembélé Al-Ettifaq Ativo 116 / 120 40% 1 15.09.2026 -
Leandro Antunes Al-Riyadh Ativo 132 / 109 40% 1 31.08.2026 -
Elton Acolatse Al-Hazem Ativo 108 / 107 40% 1 31.08.2026 -
Abdullah Al-Hamddan Al-Nassr Ativo 94 / 113 40% 1 29.08.2026 -
Ibrahim Aliyu Houston Dynamo Ativo 124 / 118 40% 1 25.08.2026 -
Mohammad Alsalkhadi Damac Ativo 123 / 112 40% 1 21.08.2026 -
Kaku Al Ain Ativo 131 / 121 40% 1 04.08.2026 -
Theo Bongonda Al-Faisaly Ativo 139 / 134 40% 1 01.08.2026 -